| time (UTC) | temp F | wind direction | speed MPH | gust MPH | rain 1hr in | rain 24hr in | rain mn in | humidity % | barometer mb |
| 20260506174514 | 60 | 188 | 2.0 | 7.0 | 0.05 | 0.05 | 0.05 | 91 | 1007.1 |
| 20260506174005 | 60 | 155 | 2.0 | 7.0 | 0.05 | 0.05 | 0.05 | 91 | 1007.0 |
| 20260506173506 | 60 | 184 | 3.0 | 7.0 | 0.05 | 0.05 | 0.05 | 91 | 1007.1 |
| 20260506173020 | 60 | 183 | 1.0 | 5.0 | 0.04 | 0.04 | 0.04 | 91 | 1007.3 |
| 20260506172509 | 60 | 64 | 2.0 | 5.0 | 0.04 | 0.04 | 0.04 | 90 | 1007.3 |
| 20260506172009 | 61 | 68 | 1.0 | 5.0 | 0.03 | 0.03 | 0.03 | 89 | 1007.6 |
| 20260506171511 | 61 | 148 | 1.0 | 5.0 | 0.02 | 0.02 | 0.02 | 88 | 1007.7 |
| 20260506171003 | 62 | 138 | 2.0 | 4.0 | 0.01 | 0.01 | 0.01 | 87 | 1007.9 |
| 20260506170505 | 62 | 86 | 1.0 | 4.0 | 0.01 | 0.01 | 0.01 | 86 | 1008.2 |
| 20260506170011 | 63 | 81 | 1.0 | 4.0 | 0.01 | 0.01 | 0.01 | 85 | 1007.9 |
| 20260506165506 | 63 | 122 | 1.0 | 6.0 | 0.00 | 0.00 | 0.00 | 81 | 1008.0 |
| 20260506165006 | 64 | 277 | 2.0 | 6.0 | 0.00 | 0.00 | 0.00 | 81 | 1008.2 |
| 20260506164519 | 64 | 153 | 2.0 | 6.0 | 0.00 | 0.00 | 0.00 | 79 | 1008.1 |
| 20260506164009 | 64 | 315 | 0.0 | 6.0 | 0.00 | 0.00 | 0.00 | 79 | 1007.9 |
| 20260506163514 | 65 | 142 | 1.0 | 7.0 | 0.00 | 0.00 | 0.00 | 77 | 1007.8 |
| 20260506163018 | 65 | 271 | 2.0 | 7.0 | 0.00 | 0.00 | 0.00 | 74 | 1007.9 |
| 20260506162509 | 65 | 321 | 3.0 | 5.0 | 0.00 | 0.00 | 0.00 | 75 | 1007.8 |
| 20260506162014 | 66 | 67 | 1.0 | 7.0 | 0.00 | 0.00 | 0.00 | 73 | 1007.8 |
| 20260506161522 | 66 | 250 | 2.0 | 10.0 | 0.00 | 0.00 | 0.00 | 73 | 1007.8 |
| 20260506161010 | 67 | 265 | 2.0 | 10.0 | 0.00 | 0.00 | 0.00 | 71 | 1007.8 |
| 20260506160511 | 67 | 342 | 2.0 | 9.0 | 0.00 | 0.00 | 0.00 | 70 | 1007.8 |
| 20260506160007 | 67 | 119 | 3.0 | 11.0 | 0.00 | 0.00 | 0.00 | 70 | 1007.9 |
| 20260506155505 | 67 | 303 | 1.0 | 11.0 | 0.00 | 0.00 | 0.00 | 71 | 1008.2 |
| 20260506155007 | 67 | 67 | 3.0 | 11.0 | 0.00 | 0.00 | 0.00 | 71 | 1008.3 |
| 20260506154512 | 67 | 316 | 2.0 | 7.0 | 0.00 | 0.00 | 0.00 | 70 | 1008.5 |
| 20260506154006 | 67 | 351 | 2.0 | 7.0 | 0.00 | 0.00 | 0.00 | 72 | 1008.3 |
| 20260506153508 | 67 | 82 | 1.0 | 6.0 | 0.00 | 0.00 | 0.00 | 72 | 1008.4 |
| 20260506153015 | 67 | 155 | 2.0 | 6.0 | 0.00 | 0.00 | 0.00 | 73 | 1008.4 |
| 20260506152506 | 66 | 309 | 1.0 | 4.0 | 0.00 | 0.00 | 0.00 | 75 | 1008.4 |
| 20260506152010 | 66 | 280 | 2.0 | 4.0 | 0.00 | 0.00 | 0.00 | 75 | 1008.5 |
| 20260506151529 | 65 | 276 | 0.0 | 4.0 | 0.00 | 0.00 | 0.00 | 76 | 1008.6 |
| 20260506151014 | 65 | 229 | 1.0 | 4.0 | 0.00 | 0.00 | 0.00 | 76 | 1008.7 |
| 20260506150507 | 65 | 71 | 2.0 | 3.0 | 0.00 | 0.00 | 0.00 | 75 | 1008.7 |
| 20260506150022 | 65 | 92 | 1.0 | 3.0 | 0.00 | 0.00 | 0.00 | 76 | 1008.7 |
| 20260506145517 | 65 | 138 | 1.0 | 5.0 | 0.00 | 0.00 | 0.00 | 77 | 1008.7 |
| 20260506145004 | 64 | 126 | 2.0 | 5.0 | 0.00 | 0.00 | 0.00 | 77 | 1008.7 |
| 20260506144512 | 64 | 244 | 1.0 | 3.0 | 0.00 | 0.00 | 0.00 | 78 | 1008.7 |
| 20260506144008 | 63 | 271 | 1.0 | 7.0 | 0.00 | 0.00 | 0.00 | 80 | 1008.9 |
| 20260506143506 | 63 | 103 | 1.0 | 7.0 | 0.00 | 0.00 | 0.00 | 79 | 1008.9 |
| 20260506143018 | 63 | 236 | 2.0 | 6.0 | 0.00 | 0.00 | 0.00 | 79 | 1008.9 |
| 20260506142510 | 63 | 173 | 1.0 | 4.0 | 0.00 | 0.00 | 0.00 | 80 | 1008.9 |
| 20260506142009 | 63 | 295 | 1.0 | 5.0 | 0.00 | 0.00 | 0.00 | 81 | 1009.0 |
| 20260506141518 | 63 | 30 | 2.0 | 6.0 | 0.00 | 0.00 | 0.00 | 80 | 1008.9 |
| 20260506141008 | 62 | 185 | 3.0 | 6.0 | 0.00 | 0.00 | 0.00 | 80 | 1009.0 |
| 20260506140510 | 62 | 184 | 2.0 | 5.0 | 0.00 | 0.00 | 0.00 | 82 | 1008.8 |
| 20260506140027 | 62 | 132 | 3.0 | 5.0 | 0.00 | 0.00 | 0.00 | 81 | 1008.9 |
| 20260506135510 | 62 | 15 | 2.0 | 7.0 | 0.00 | 0.00 | 0.00 | 82 | 1009.0 |
| 20260506135006 | 61 | 169 | 2.0 | 7.0 | 0.00 | 0.00 | 0.00 | 81 | 1008.9 |
| 20260506134523 | 61 | 70 | 2.0 | 7.0 | 0.00 | 0.00 | 0.00 | 82 | 1008.8 |
| 20260506134012 | 61 | 121 | 2.0 | 6.0 | 0.00 | 0.00 | 0.00 | 82 | 1008.8 |
| 20260506133506 | 61 | 118 | 0.0 | 7.0 | 0.00 | 0.00 | 0.00 | 84 | 1008.8 |
| 20260506133013 | 60 | 229 | 1.0 | 7.0 | 0.00 | 0.00 | 0.00 | 83 | 1008.8 |
| 20260506132509 | 60 | 334 | 1.0 | 7.0 | 0.00 | 0.00 | 0.00 | 84 | 1008.8 |
| 20260506132007 | 60 | 140 | 2.0 | 5.0 | 0.00 | 0.00 | 0.00 | 84 | 1008.7 |
| 20260506131520 | 60 | 118 | 2.0 | 7.0 | 0.00 | 0.00 | 0.00 | 85 | 1008.9 |
| 20260506131007 | 59 | 56 | 1.0 | 7.0 | 0.00 | 0.00 | 0.00 | 85 | 1009.0 |
| 20260506130508 | 59 | 161 | 1.0 | 6.0 | 0.00 | 0.00 | 0.00 | 85 | 1009.1 |
| 20260506130020 | 59 | 131 | 2.0 | 4.0 | 0.00 | 0.00 | 0.00 | 85 | 1009.1 |
| 20260506125508 | 59 | 238 | 2.0 | 5.0 | 0.00 | 0.00 | 0.00 | 86 | 1009.1 |
| 20260506125009 | 59 | 188 | 1.0 | 5.0 | 0.00 | 0.00 | 0.00 | 85 | 1009.1 |
| 20260506124522 | 58 | 134 | 1.0 | 3.0 | 0.00 | 0.00 | 0.00 | 86 | 1009.0 |
| 20260506124011 | 58 | 63 | 1.0 | 3.0 | 0.00 | 0.00 | 0.00 | 86 | 1009.3 |
| 20260506123510 | 58 | 157 | 0.0 | 3.0 | 0.00 | 0.00 | 0.00 | 87 | 1009.4 |
| 20260506123023 | 58 | 269 | 2.0 | 3.0 | 0.00 | 0.00 | 0.00 | 86 | 1009.3 |
| 20260506122508 | 58 | 83 | 1.0 | 4.0 | 0.00 | 0.00 | 0.00 | 87 | 1009.3 |
| 20260506122006 | 58 | 144 | 1.0 | 5.0 | 0.00 | 0.00 | 0.00 | 87 | 1009.4 |
| 20260506121510 | 58 | 129 | 2.0 | 5.0 | 0.00 | 0.00 | 0.00 | 87 | 1009.4 |
| 20260506121007 | 57 | 49 | 1.0 | 5.0 | 0.00 | 0.00 | 0.00 | 88 | 1009.3 |
| 20260506120508 | 57 | 307 | 0.0 | 2.0 | 0.00 | 0.00 | 0.00 | 88 | 1009.3 |
| 20260506120033 | 57 | 25 | 0.0 | 3.0 | 0.00 | 0.00 | 0.00 | 89 | 1009.2 |
| 20260506115509 | 57 | 177 | 1.0 | 4.0 | 0.00 | 0.00 | 0.00 | 88 | 1009.3 |
| 20260506115012 | 57 | 251 | 1.0 | 7.0 | 0.00 | 0.00 | 0.00 | 88 | 1009.4 |
| 20260506114520 | 57 | 182 | 1.0 | 7.0 | 0.00 | 0.00 | 0.00 | 88 | 1009.2 |
| 20260506114009 | 57 | 176 | 2.0 | 6.0 | 0.00 | 0.00 | 0.00 | 89 | 1009.1 |
| 20260506113503 | 56 | 161 | 1.0 | 4.0 | 0.00 | 0.00 | 0.00 | 89 | 1009.3 |
| 20260506113010 | 56 | 213 | 1.0 | 5.0 | 0.00 | 0.00 | 0.00 | 89 | 1009.4 |
| 20260506112505 | 56 | 169 | 1.0 | 7.0 | 0.00 | 0.00 | 0.00 | 89 | 1009.4 |
| 20260506112005 | 56 | 202 | 2.0 | 7.0 | 0.00 | 0.00 | 0.00 | 89 | 1009.3 |
| 20260506111510 | 56 | 89 | 1.0 | 5.0 | 0.00 | 0.00 | 0.00 | 90 | 1009.3 |
| 20260506111007 | 56 | 166 | 1.0 | 4.0 | 0.00 | 0.00 | 0.00 | 91 | 1009.2 |
| 20260506110509 | 55 | 164 | 1.0 | 4.0 | 0.00 | 0.00 | 0.00 | 92 | 1009.2 |
| 20260506110014 | 55 | 80 | 1.0 | 4.0 | 0.00 | 0.00 | 0.00 | 92 | 1009.4 |
| 20260506105503 | 54 | 101 | 0.0 | 2.0 | 0.00 | 0.00 | 0.00 | 93 | 1009.6 |
| 20260506105003 | 53 | 286 | 0.0 | 2.0 | 0.00 | 0.00 | 0.00 | 93 | 1009.5 |
| 20260506104507 | 53 | 186 | 0.0 | 2.0 | 0.00 | 0.00 | 0.00 | 93 | 1009.4 |
| 20260506104003 | 53 | 186 | 0.0 | 2.0 | 0.00 | 0.00 | 0.00 | 92 | 1009.5 |
| 20260506103502 | 53 | 288 | 0.0 | 2.0 | 0.00 | 0.00 | 0.00 | 92 | 1009.5 |
| 20260506103005 | 53 | 289 | 0.0 | 2.0 | 0.00 | 0.00 | 0.00 | 92 | 1009.6 |
| 20260506102504 | 53 | 205 | 0.0 | 2.0 | 0.00 | 0.00 | 0.00 | 92 | 1009.5 |
| 20260506102004 | 53 | 221 | 0.0 | 3.0 | 0.00 | 0.00 | 0.00 | 92 | 1009.5 |
| 20260506101508 | 53 | 171 | 0.0 | 3.0 | 0.00 | 0.00 | 0.00 | 92 | 1009.3 |
| 20260506101007 | 53 | 101 | 0.0 | 3.0 | 0.00 | 0.00 | 0.00 | 92 | 1009.3 |
| 20260506100506 | 53 | 140 | 0.0 | 3.0 | 0.00 | 0.00 | 0.00 | 92 | 1009.2 |
| 20260506100026 | 53 | 184 | 1.0 | 3.0 | 0.00 | 0.00 | 0.00 | 92 | 1009.2 |
| 20260506094521 | 53 | 250 | 0.0 | 2.0 | 0.00 | 0.00 | 0.00 | 92 | 1009.2 |
| 20260506094004 | 53 | 245 | 0.0 | 2.0 | 0.00 | 0.00 | 0.00 | 91 | 1009.2 |
| 20260506093512 | 53 | 203 | 0.0 | 2.0 | 0.00 | 0.00 | 0.00 | 91 | 1009.2 |
| 20260506093005 | 53 | 221 | 1.0 | 2.0 | 0.00 | 0.00 | 0.00 | 92 | 1009.2 |
| 20260506092507 | 53 | 219 | 0.0 | 2.0 | 0.00 | 0.00 | 0.00 | 91 | 1009.2 |
| 20260506092006 | 53 | 90 | 0.0 | 2.0 | 0.00 | 0.00 | 0.00 | 91 | 1009.2 |
| 20260506091506 | 53 | 118 | 0.0 | 2.0 | 0.00 | 0.00 | 0.00 | 91 | 1009.2 |
| 20260506091004 | 53 | 118 | 0.0 | 2.0 | 0.00 | 0.00 | 0.00 | 91 | 1009.3 |
| 20260506090505 | 53 | 65 | 0.0 | 2.0 | 0.00 | 0.00 | 0.00 | 91 | 1009.2 |
| 20260506090010 | 54 | 66 | 0.0 | 2.0 | 0.00 | 0.00 | 0.00 | 90 | 1009.3 |
| 20260506085507 | 54 | 65 | 0.0 | 2.0 | 0.00 | 0.00 | 0.00 | 90 | 1009.2 |
| 20260506085007 | 54 | 150 | 0.0 | 2.0 | 0.00 | 0.00 | 0.00 | 90 | 1009.3 |
| 20260506084515 | 54 | 133 | 0.0 | 2.0 | 0.00 | 0.00 | 0.00 | 90 | 1009.3 |
| 20260506084008 | 54 | 119 | 0.0 | 1.0 | 0.00 | 0.00 | 0.00 | 89 | 1009.3 |
| 20260506083510 | 54 | 117 | 0.0 | 1.0 | 0.00 | 0.00 | 0.00 | 89 | 1009.3 |
| 20260506083018 | 54 | 70 | 0.0 | 2.0 | 0.00 | 0.00 | 0.00 | 88 | 1009.4 |
| 20260506082505 | 54 | 70 | 0.0 | 2.0 | 0.00 | 0.00 | 0.00 | 88 | 1009.4 |
| 20260506082004 | 55 | 211 | 0.0 | 2.0 | 0.00 | 0.00 | 0.00 | 87 | 1009.4 |
| 20260506081504 | 55 | 269 | 0.0 | 2.0 | 0.00 | 0.00 | 0.00 | 87 | 1009.3 |
| 20260506081006 | 55 | 275 | 0.0 | 2.0 | 0.00 | 0.00 | 0.00 | 87 | 1009.3 |
| 20260506080503 | 55 | 106 | 1.0 | 3.0 | 0.00 | 0.00 | 0.00 | 87 | 1009.2 |
| 20260506073509 | 55 | 161 | 0.0 | 2.0 | 0.00 | 0.00 | 0.00 | 85 | 1009.2 |
| 20260506073018 | 56 | 94 | 0.0 | 2.0 | 0.00 | 0.00 | 0.00 | 85 | 1009.2 |
| 20260506072512 | 55 | 112 | 0.0 | 2.0 | 0.00 | 0.00 | 0.00 | 85 | 1009.2 |
| 20260506072012 | 55 | 96 | 0.0 | 2.0 | 0.00 | 0.00 | 0.00 | 85 | 1009.3 |
| 20260506071506 | 56 | 61 | 0.0 | 2.0 | 0.00 | 0.00 | 0.00 | 85 | 1009.2 |
| 20260506071003 | 56 | 135 | 0.0 | 2.0 | 0.00 | 0.00 | 0.00 | 84 | 1009.3 |
| 20260506070504 | 56 | 135 | 0.0 | 2.0 | 0.00 | 0.00 | 0.00 | 83 | 1009.3 |
| 20260506062507 | 57 | 106 | 0.0 | 5.0 | 0.00 | 0.00 | 0.00 | 81 | 1009.1 |
| 20260506062011 | 57 | 147 | 1.0 | 5.0 | 0.00 | 0.00 | 0.00 | 81 | 1009.1 |
| 20260506061520 | 57 | 174 | 0.0 | 2.0 | 0.00 | 0.00 | 0.00 | 81 | 1009.1 |
| 20260506061011 | 57 | 156 | 0.0 | 2.0 | 0.00 | 0.00 | 0.00 | 80 | 1009.1 |
| 20260506060509 | 57 | 162 | 0.0 | 2.0 | 0.00 | 0.00 | 0.00 | 79 | 1009.1 |
| 20260506051009 | 59 | 58 | 0.0 | 4.0 | 0.00 | 0.00 | 0.00 | 76 | 1009.4 |
| 20260506050515 | 59 | 185 | 1.0 | 4.0 | 0.00 | 0.00 | 0.00 | 75 | 1009.4 |
| 20260506045010 | 59 | 76 | 0.0 | 3.0 | 0.00 | 0.00 | 0.00 | 75 | 1009.4 |
| 20260506044505 | 59 | 13 | 0.0 | 3.0 | 0.00 | 0.00 | 0.00 | 75 | 1009.4 |
| 20260506044005 | 59 | 194 | 0.0 | 5.0 | 0.00 | 0.00 | 0.00 | 75 | 1009.4 |
| 20260506043011 | 59 | 310 | 1.0 | 3.0 | 0.00 | 0.00 | 0.00 | 75 | 1009.4 |
| 20260506042507 | 59 | 130 | 1.0 | 3.0 | 0.00 | 0.00 | 0.00 | 75 | 1009.3 |
| 20260506042007 | 59 | 26 | 1.0 | 3.0 | 0.00 | 0.00 | 0.00 | 75 | 1009.3 |
| 20260506041516 | 59 | 161 | 1.0 | 3.0 | 0.00 | 0.00 | 0.00 | 74 | 1009.3 |
| 20260506041009 | 59 | 5 | 0.0 | 4.0 | 0.00 | 0.00 | 0.00 | 74 | 1009.3 |
| 20260506040508 | 59 | 159 | 1.0 | 4.0 | 0.00 | 0.00 | 0.00 | 74 | 1009.3 |
| 20260506035506 | 59 | 164 | 0.0 | 2.0 | 0.00 | 0.00 | 0.00 | 75 | 1009.4 |
| 20260506035008 | 59 | 352 | 0.0 | 2.0 | 0.00 | 0.00 | 0.00 | 74 | 1009.5 |
| 20260506034526 | 59 | 178 | 0.0 | 5.0 | 0.00 | 0.00 | 0.00 | 74 | 1009.5 |
| 20260506034007 | 60 | 177 | 0.0 | 5.0 | 0.00 | 0.00 | 0.00 | 73 | 1009.5 |
| 20260506033505 | 60 | 196 | 1.0 | 3.0 | 0.00 | 0.00 | 0.00 | 73 | 1009.5 |
| 20260506032506 | 60 | 285 | 0.0 | 3.0 | 0.00 | 0.00 | 0.00 | 73 | 1009.7 |
| 20260506032007 | 60 | 158 | 1.0 | 3.0 | 0.00 | 0.00 | 0.00 | 73 | 1009.7 |
| 20260506031510 | 60 | 189 | 0.0 | 2.0 | 0.00 | 0.00 | 0.00 | 72 | 1009.6 |
| 20260506031008 | 60 | 221 | 1.0 | 4.0 | 0.00 | 0.00 | 0.00 | 72 | 1009.6 |
| 20260506030510 | 60 | 157 | 0.0 | 7.0 | 0.00 | 0.00 | 0.00 | 71 | 1009.6 |
| 20260506030015 | 61 | 23 | 1.0 | 7.0 | 0.00 | 0.00 | 0.00 | 71 | 1009.6 |
| 20260506025506 | 61 | 195 | 1.0 | 3.0 | 0.00 | 0.00 | 0.00 | 71 | 1009.6 |
| 20260506025006 | 61 | 178 | 0.0 | 8.0 | 0.00 | 0.00 | 0.00 | 70 | 1009.4 |
| 20260506024525 | 61 | 146 | 2.0 | 8.0 | 0.00 | 0.00 | 0.00 | 70 | 1009.5 |
| 20260506024011 | 61 | 119 | 1.0 | 7.0 | 0.00 | 0.00 | 0.00 | 70 | 1009.5 |
| 20260506023508 | 61 | 65 | 2.0 | 6.0 | 0.00 | 0.00 | 0.00 | 70 | 1009.3 |
| 20260506023028 | 61 | 113 | 1.0 | 3.0 | 0.00 | 0.00 | 0.00 | 70 | 1009.3 |
| 20260506022510 | 61 | 5 | 1.0 | 6.0 | 0.00 | 0.00 | 0.00 | 71 | 1009.2 |
| 20260506022003 | 61 | 131 | 1.0 | 5.0 | 0.00 | 0.00 | 0.00 | 70 | 1009.3 |
| 20260506021008 | 62 | 194 | 0.0 | 3.0 | 0.00 | 0.00 | 0.00 | 69 | 1009.1 |
| 20260506020507 | 62 | 38 | 1.0 | 6.0 | 0.00 | 0.00 | 0.00 | 68 | 1009.2 |
| 20260506020016 | 62 | 138 | 1.0 | 6.0 | 0.00 | 0.00 | 0.00 | 69 | 1009.2 |
| 20260506015506 | 62 | 146 | 1.0 | 3.0 | 0.00 | 0.00 | 0.00 | 68 | 1009.1 |
| 20260506015014 | 62 | 160 | 1.0 | 4.0 | 0.00 | 0.00 | 0.00 | 69 | 1009.2 |
| 20260506014007 | 62 | 159 | 1.0 | 2.0 | 0.00 | 0.00 | 0.00 | 68 | 1009.1 |
| 20260506013511 | 63 | 80 | 0.0 | 4.0 | 0.00 | 0.00 | 0.00 | 68 | 1009.1 |
| 20260506013021 | 63 | 221 | 1.0 | 4.0 | 0.00 | 0.00 | 0.00 | 68 | 1009.0 |
| 20260506012510 | 63 | 197 | 0.0 | 4.0 | 0.00 | 0.00 | 0.00 | 68 | 1008.9 |
| 20260506012012 | 63 | 348 | 0.0 | 6.0 | 0.00 | 0.00 | 0.00 | 68 | 1008.9 |
| 20260506011524 | 63 | 64 | 1.0 | 6.0 | 0.00 | 0.00 | 0.00 | 67 | 1008.9 |
| 20260506011012 | 63 | 205 | 1.0 | 5.0 | 0.00 | 0.00 | 0.00 | 67 | 1008.7 |
| 20260506010511 | 64 | 68 | 0.0 | 3.0 | 0.00 | 0.00 | 0.00 | 67 | 1008.8 |
| 20260506010025 | 64 | 118 | 1.0 | 3.0 | 0.00 | 0.00 | 0.00 | 67 | 1008.8 |
| 20260506005507 | 64 | 35 | 0.0 | 2.0 | 0.00 | 0.00 | 0.00 | 66 | 1008.7 |
| 20260506005008 | 64 | 61 | 0.0 | 2.0 | 0.00 | 0.00 | 0.00 | 65 | 1008.7 |
| 20260506004007 | 64 | 346 | 0.0 | 2.0 | 0.00 | 0.00 | 0.00 | 66 | 1008.7 |
| 20260506002509 | 66 | 145 | 1.0 | 7.0 | 0.00 | 0.00 | 0.00 | 63 | 1008.3 |
| 20260506002012 | 66 | 165 | 1.0 | 7.0 | 0.00 | 0.00 | 0.00 | 63 | 1008.2 |
| 20260506001523 | 66 | 346 | 1.0 | 6.0 | 0.00 | 0.00 | 0.00 | 62 | 1008.1 |
| 20260506001010 | 67 | 128 | 1.0 | 6.0 | 0.00 | 0.00 | 0.00 | 62 | 1007.9 |
| 20260506000510 | 67 | 298 | 1.0 | 6.0 | 0.00 | 0.00 | 0.00 | 61 | 1007.8 |
| 20260506000026 | 67 | 307 | 2.0 | 6.0 | 0.00 | 0.00 | 0.00 | 62 | 1007.7 |
| 20260505235508 | 67 | 239 | 1.0 | 4.0 | 0.00 | 0.00 | 0.00 | 61 | 1007.6 |
| 20260505235007 | 67 | 317 | 1.0 | 5.0 | 0.00 | 0.00 | 0.00 | 62 | 1007.5 |
| 20260505234007 | 68 | 9 | 1.0 | 6.0 | 0.00 | 0.00 | 0.00 | 61 | 1007.4 |
| 20260505233503 | 68 | 209 | 0.0 | 7.0 | 0.00 | 0.00 | 0.00 | 60 | 1007.5 |
| 20260505233007 | 68 | 119 | 1.0 | 10.0 | 0.00 | 0.00 | 0.00 | 60 | 1007.3 |
| 20260505232503 | 68 | 123 | 2.0 | 10.0 | 0.00 | 0.00 | 0.00 | 60 | 1007.3 |
| 20260505232004 | 68 | 162 | 1.0 | 5.0 | 0.00 | 0.00 | 0.00 | 60 | 1007.2 |
| 20260505231503 | 68 | 121 | 2.0 | 5.0 | 0.00 | 0.00 | 0.00 | 60 | 1007.2 |
| 20260505231003 | 69 | 87 | 0.0 | 5.0 | 0.00 | 0.00 | 0.00 | 59 | 1007.2 |
| 20260505230504 | 69 | 173 | 1.0 | 7.0 | 0.00 | 0.00 | 0.00 | 58 | 1007.1 |
| 20260505225508 | 70 | 244 | 1.0 | 7.0 | 0.00 | 0.00 | 0.00 | 58 | 1007.0 |
| 20260505225008 | 70 | 105 | 3.0 | 11.0 | 0.00 | 0.00 | 0.00 | 56 | 1006.8 |
| 20260505224514 | 71 | 142 | 3.0 | 11.0 | 0.00 | 0.00 | 0.00 | 55 | 1006.8 |
| 20260505224009 | 71 | 326 | 3.0 | 9.0 | 0.00 | 0.00 | 0.00 | 55 | 1006.8 |
| 20260505223519 | 72 | 257 | 3.0 | 9.0 | 0.00 | 0.00 | 0.00 | 54 | 1006.7 |
| 20260505222505 | 72 | 164 | 3.0 | 11.0 | 0.00 | 0.00 | 0.00 | 54 | 1006.6 |
| 20260505222003 | 73 | 149 | 3.0 | 11.0 | 0.00 | 0.00 | 0.00 | 53 | 1006.6 |
| 20260505221506 | 73 | 10 | 1.0 | 7.0 | 0.00 | 0.00 | 0.00 | 53 | 1006.6 |
| 20260505221004 | 73 | 159 | 2.0 | 7.0 | 0.00 | 0.00 | 0.00 | 52 | 1006.6 |
| 20260505220502 | 73 | 129 | 2.0 | 7.0 | 0.00 | 0.00 | 0.00 | 53 | 1006.6 |
| 20260505220007 | 73 | 161 | 2.0 | 9.0 | 0.00 | 0.00 | 0.00 | 53 | 1006.7 |
| 20260505215503 | 73 | 340 | 3.0 | 9.0 | 0.00 | 0.00 | 0.00 | 52 | 1006.7 |
| 20260505215003 | 74 | 115 | 4.0 | 11.0 | 0.00 | 0.00 | 0.00 | 50 | 1006.5 |
| 20260505213508 | 75 | 145 | 4.0 | 14.0 | 0.00 | 0.00 | 0.00 | 49 | 1006.4 |
| 20260505212510 | 75 | 138 | 4.0 | 17.0 | 0.00 | 0.00 | 0.00 | 49 | 1006.3 |
| 20260505212009 | 75 | 59 | 4.0 | 13.0 | 0.00 | 0.00 | 0.00 | 49 | 1006.4 |
| 20260505211504 | 75 | 352 | 5.0 | 11.0 | 0.00 | 0.00 | 0.00 | 49 | 1006.5 |
| 20260505211003 | 76 | 247 | 3.0 | 11.0 | 0.00 | 0.00 | 0.00 | 51 | 1006.4 |
| 20260505210503 | 76 | 147 | 4.0 | 11.0 | 0.00 | 0.00 | 0.00 | 50 | 1006.2 |
| 20260505210004 | 76 | 136 | 3.0 | 11.0 | 0.00 | 0.00 | 0.00 | 50 | 1006.2 |
| 20260505205503 | 76 | 238 | 4.0 | 12.0 | 0.00 | 0.00 | 0.00 | 50 | 1006.1 |
| 20260505205007 | 76 | 148 | 5.0 | 12.0 | 0.00 | 0.00 | 0.00 | 48 | 1006.2 |
| 20260505204511 | 76 | 319 | 2.0 | 12.0 | 0.00 | 0.00 | 0.00 | 50 | 1006.2 |
| 20260505204010 | 77 | 186 | 3.0 | 9.0 | 0.00 | 0.00 | 0.00 | 48 | 1006.0 |
| 20260505203503 | 77 | 90 | 3.0 | 11.0 | 0.00 | 0.00 | 0.00 | 48 | 1005.9 |
| 20260505202508 | 78 | 190 | 2.0 | 11.0 | 0.00 | 0.00 | 0.00 | 50 | 1005.9 |
| 20260505202007 | 77 | 115 | 4.0 | 15.0 | 0.00 | 0.00 | 0.00 | 48 | 1006.0 |
| 20260505201007 | 78 | 51 | 4.0 | 11.0 | 0.00 | 0.00 | 0.00 | 46 | 1006.1 |
| 20260505200004 | 79 | 152 | 3.0 | 10.0 | 0.00 | 0.00 | 0.00 | 46 | 1006.2 |
| 20260505195506 | 80 | 337 | 1.0 | 14.0 | 0.00 | 0.00 | 0.00 | 46 | 1006.0 |
| 20260505195002 | 79 | 294 | 2.0 | 15.0 | 0.00 | 0.00 | 0.00 | 49 | 1006.0 |
| 20260505194506 | 78 | 106 | 4.0 | 15.0 | 0.00 | 0.00 | 0.00 | 47 | 1005.9 |
| 20260505194004 | 78 | 163 | 5.0 | 13.0 | 0.00 | 0.00 | 0.00 | 47 | 1005.9 |
| 20260505193503 | 78 | 153 | 4.0 | 13.0 | 0.00 | 0.00 | 0.00 | 46 | 1005.9 |
| 20260505192006 | 77 | 23 | 5.0 | 13.0 | 0.00 | 0.00 | 0.00 | 48 | 1006.2 |
| 20260505191011 | 77 | 48 | 5.0 | 11.0 | 0.00 | 0.00 | 0.00 | 48 | 1006.1 |
| 20260505190509 | 78 | 346 | 3.0 | 8.0 | 0.00 | 0.00 | 0.00 | 47 | 1006.2 |
| 20260505190024 | 78 | 152 | 3.0 | 8.0 | 0.00 | 0.00 | 0.00 | 48 | 1006.4 |
| 20260505185513 | 79 | 137 | 2.0 | 10.0 | 0.00 | 0.00 | 0.00 | 48 | 1006.5 |
| 20260505184003 | 78 | 167 | 2.0 | 18.0 | 0.00 | 0.00 | 0.00 | 47 | 1006.6 |
| 20260505183504 | 79 | 293 | 2.0 | 9.0 | 0.00 | 0.00 | 0.00 | 47 | 1006.8 |
| 20260505182512 | 79 | 46 | 2.0 | 9.0 | 0.00 | 0.00 | 0.00 | 48 | 1006.9 |
| 20260505182008 | 79 | 65 | 2.0 | 12.0 | 0.00 | 0.00 | 0.00 | 45 | 1006.7 |
| 20260505181515 | 80 | 252 | 5.0 | 11.0 | 0.00 | 0.00 | 0.00 | 50 | 1006.7 |
| 20260505181008 | 79 | 176 | 3.0 | 15.0 | 0.00 | 0.00 | 0.00 | 50 | 1006.8 |
| 20260505180509 | 79 | 47 | 3.0 | 15.0 | 0.00 | 0.00 | 0.00 | 51 | 1006.7 |
| 20260505180041 | 78 | 5 | 1.0 | 8.0 | 0.00 | 0.00 | 0.00 | 47 | 1006.8 |
| 20260505175510 | 79 | 207 | 1.0 | 7.0 | 0.00 | 0.00 | 0.00 | 47 | 1006.8 |
| 20260505175011 | 79 | 360 | 3.0 | 10.0 | 0.00 | 0.00 | 0.00 | 45 | 1006.9 |